Weather History for KMBG - January, 2013

Change the Weather History Date:

Saturday, January 5, 2013

  Actual Average Record
Temperature  
Mean Temperature 14 °F 16 °F  
Max Temperature 24 °F 25 °F 55 °F (2012)
Min Temperature 3 °F 6 °F -27 °F (1973)
Degree Days  
Heating Degree Days 51 49  
Month to date heating degree days 236 245  
Since 1 July heating degree days 3418 3461  
Cooling Degree Days 0 0  
Month to date cooling degree days 0 0  
Year to date cooling degree days 0 0  
Moisture  
Dew Point 8 °F    
Average Humidity 81    
Maximum Humidity 91    
Minimum Humidity 71    
Precipitation  
Precipitation T in 0.01 in 0.28 in (1937)
Month to date precipitation 0.01 0.06  
Year to date precipitation 0.01 0.06  
Snow  
Snow T in - - ()
Month to date snowfall 0.2  
Since 1 July snowfall 9.5  
Snow Depth 2.00 in    
Sea Level Pressure  
Sea Level Pressure 30.10 in    
Wind  
Wind Speed 10 mph (NNW)    
Max Wind Speed 37 mph    
Max Gust Speed 46 mph    
Visibility 8 miles    
Events Snow    
T = Trace of Precipitation, MM = Missing Value Source: NWS Daily Summary

Daily Weather History Graph

Daily Weather History Graph

Search for Another Location

Airport or City:

Trip Planner

Search our weather history database for the weather conditions in past years. The results will help you decide how hot, cold, wet, or windy it might be!

Date:

Astronomy

Jan. 05, 2013 Rise Set
Actual Time 8:21 AM CST 5:13 PM CST
Civil Twilight 7:47 AM CST 5:46 PM CST
Nautical Twilight 7:10 AM CST 6:24 PM CST
Astronomical Twilight 6:34 AM CST 7:00 PM CST
Moon 1:19 AM CST (1/5) 12:12 PM CST (1/5)
Length of Visible Light 9h 59m
Length of Day
8h 51m
Last Quarter, 44% of the Moon is Illuminated
Jan 5
Last Quarter
Jan 11
New
Jan 18
First Quarter
Jan 26
Full
Feb 3
Last Quarter

Hourly Weather History & Observations

Time (CST) Temp. Windchill Dew Point Humidity Pressure Visibility Wind Dir Wind Speed Gust Speed Precip Events Conditions
12:52 AM 12.0 °F 5.9 °F 7.0 °F 80% 30.04 in 10.0 mi ESE 3.5 mph - N/A   Clear
1:52 AM 12.0 °F 4.1 °F 6.1 °F 77% 30.03 in 10.0 mi ESE 4.6 mph - N/A   Clear
2:52 AM 12.9 °F 6.9 °F 7.0 °F 77% 30.03 in 10.0 mi SE 3.5 mph - N/A   Clear
3:52 AM 12.0 °F - 7.0 °F 80% 30.03 in 10.0 mi Calm Calm - N/A   Clear
4:52 AM 9.0 °F - 5.0 °F 84% 30.02 in 10.0 mi Calm Calm - N/A   Clear
6:52 AM 21.0 °F 8.1 °F 14.0 °F 74% 30.00 in 10.0 mi NNW 13.8 mph - N/A   Clear
7:52 AM 21.0 °F 10.6 °F 14.0 °F 74% 30.01 in - NNW 9.2 mph - N/A   Unknown
9:11 AM 21.2 °F 3.5 °F 12.2 °F 68% 29.95 in 10.0 mi NW 27.6 mph 36.8 mph N/A   Mostly Cloudy
9:52 AM 19.0 °F 1.6 °F 12.9 °F 77% 30.06 in 8.0 mi NW 24.2 mph 34.5 mph N/A   Overcast
10:52 AM 16.0 °F -5.0 °F 10.0 °F 77% 30.09 in 7.0 mi NW 33.4 mph 39.1 mph 0.00 in   Overcast
10:59 AM 15.8 °F -4.1 °F 10.4 °F 79% 29.99 in 6.0 mi NNW 28.8 mph 39.1 mph 0.00 in   Overcast
11:34 AM 17.6 °F 0.5 °F 10.4 °F 73% 30.02 in 10.0 mi NNW 21.9 mph 33.4 mph 0.00 in   Overcast
11:52 AM 17.1 °F -2.7 °F 10.0 °F 74% 30.12 in 4.0 mi NNW 29.9 mph 38.0 mph 0.00 in Snow Light Snow
12:16 PM 15.8 °F -5.5 °F 8.6 °F 73% 30.01 in 3.0 mi NNW 34.5 mph 40.3 mph 0.00 in Snow Light Snow
12:23 PM 15.8 °F -5.5 °F 8.6 °F 73% 30.00 in 2.0 mi NNW 34.5 mph 46.0 mph 0.00 in Snow Light Snow
12:49 PM 15.8 °F -2.7 °F 8.6 °F 73% 30.03 in 3.0 mi NW 24.2 mph 31.1 mph 0.00 in Snow Light Snow
12:52 PM 15.1 °F -3.7 °F 9.0 °F 77% 30.13 in 3.0 mi NW 24.2 mph - 0.00 in Snow Light Snow
1:52 PM 17.1 °F -1.4 °F 12.0 °F 81% 30.13 in 10.0 mi NNW 25.3 mph 32.2 mph 0.00 in   Overcast
2:52 PM 18.0 °F 4.8 °F 12.9 °F 81% 30.17 in 8.0 mi NW 12.7 mph 23.0 mph N/A   Overcast
3:52 PM 18.0 °F 1.7 °F 12.9 °F 81% 30.19 in 9.0 mi NNW 19.6 mph - N/A   Overcast
4:52 PM 16.0 °F 1.7 °F 10.0 °F 77% 30.23 in 10.0 mi NNW 13.8 mph - N/A   Scattered Clouds
5:52 PM 12.9 °F - 8.1 °F 81% 30.23 in 10.0 mi Calm Calm - N/A   Clear
6:52 PM 8.1 °F - 5.0 °F 87% 30.24 in 10.0 mi Calm Calm - N/A   Clear
7:52 PM 3.9 °F - 1.0 °F 88% 30.24 in 10.0 mi Calm Calm - N/A   Clear
8:52 PM 3.9 °F - 1.9 °F 91% 30.23 in 10.0 mi Calm Calm - N/A   Clear
9:52 PM 3.9 °F - 1.9 °F 91% 30.23 in 10.0 mi Calm Calm - N/A   Clear
10:52 PM 5.0 °F - 1.9 °F 87% 30.23 in 10.0 mi Calm Calm - N/A   Clear
11:52 PM 7.0 °F 0.1 °F 3.9 °F 87% 30.21 in 10.0 mi East 3.5 mph - N/A   Clear